Wind_Speed
4 3 1 1 1 2 3 3 4 5 6 7 8 9 9 10 12 13 13 14 14 15 14 14 12 11 10 10 11 11 10 9 9 8 8 9 10 10 9 9 10 9 9
9 4 2 3 3 3 4 5 6 7 7 7 6 7 9 11 12 14 14 14 14 14 15 13 11 8 9 9 10 10 10 10 10 10 10 10 9 10 10 9 8 8 9
6 4 5 6 6 6 7 7 8 9 9 7 7 7 9 10 11 12 13 14 16 17 17 15 14 13 10 9 8 9 8 7 7 9 9 9 10 11 8 8 8 9 8
4 4 6 7 8 9 10 10 10 10 10 8 7 8 9 10 11 12 13 14 15 16 16 15 13 12 13 12 11 12 12 9 8 9 10 11 10 7 6 6 7 7 8
3 4 5 8 8 10 11 11 12 11 10 10 10 9 10 11 12 13 14 15 15 16 15 14 13 14 14 14 13 12 14 13 11 10 9 8 7 5 5 6 7 8 9
3 4 5 8 10 12 12 13 14 14 13 12 12 12 12 12 13 14 15 16 17 17 17 16 16 18 18 15 14 12 11 12 11 11 10 8 6 7 7 6 7 9 11
6 4 5 6 6 8 11 12 13 14 14 14 13 14 14 14 14 15 16 17 18 19 19 19 18 20 21 20 16 13 11 12 12 12 11 10 6 8 7 7 8 9 10
7 6 5 5 5 5 7 9 11 12 12 13 14 14 15 15 16 16 17 18 20 21 21 23 22 23 24 23 18 12 12 11 11 12 14 12 11 10 9 8 7 8 8
6 7 8 8 6 6 5 7 8 8 9 11 14 16 17 18 18 19 19 19 20 21 22 23 24 23 25 21 17 12 10 10 14 11 13 14 14 12 11 9 10 8 8
7 8 5 5 4 4 4 6 7 7 8 10 11 12 14 17 18 17 18 19 20 21 21 22 25 24 22 20 17 11 11 12 11 14 14 15 15 14 13 13 10 12 10
3 2 1 2 4 5 4 7 6 8 9 10 11 9 10 10 13 14 14 15 16 19 21 22 24 25 20 17 16 15 12 11 15 14 15 15 13 15 15 15 12 13 13
1 1 1 3 2 3 6 8 7 6 8 10 11 10 11 11 10 11 12 14 15 17 19 18 17 16 18 17 16 16 15 19 14 18 15 16 16 16 18 17 15 15 15
1 3 1 3 5 5 7 8 9 9 9 11 12 12 12 13 14 13 12 12 13 14 15 13 13 14 16 16 15 18 18 12 21 20 20 19 20 18 20 19 17 18 17
2 5 4 2 7 7 10 12 12 14 15 16 15 13 13 14 14 14 15 16 15 15 14 14 16 16 16 19 19 19 19 21 22 21 20 23 24 22 21 19 19 20 18
3 3 11 7 9 13 15 19 20 18 18 18 19 16 14 14 15 15 17 18 17 17 18 18 18 21 19 18 20 21 23 23 24 26 28 31 28 30 27 23 23 21 18
4 5 14 12 11 15 19 19 21 19 17 19 20 21 21 19 18 18 18 18 17 18 18 20 20 20 21 19 20 21 22 25 25 26 28 34 33 26 28 30 27 26 22
13 11 14 12 13 12 13 15 15 15 15 16 17 18 21 22 19 17 18 18 19 20 19 18 17 17 18 20 19 20 24 25 30 22 28 30 30 31 32 43 35 27 24
18 16 11 11 14 16 14 15 18 17 16 15 15 16 19 22 21 18 19 22 21 21 21 20 20 21 23 24 27 26 26 27 29 28 30 32 32 33 30 25 25 27 29
20 17 13 13 15 19 20 19 19 21 22 21 19 19 22 24 18 18 17 20 22 23 22 24 25 27 29 29 29 30 28 26 30 33 30 33 37 33 27 35 37 30 37
24 22 19 17 16 18 22 23 23 24 24 24 24 26 27 25 23 25 26 23 23 25 24 25 28 31 32 31 28 28 29 29 32 34 34 37 40 34 30 32 29 36 46
22 22 21 20 19 19 21 23 26 28 27 26 27 28 32 32 27 26 26 26 26 26 29 32 33 35 37 37 34 33 33 32 32 33 32 35 40 39 42 30 15 23 22
22 22 23 24 24 22 23 24 26 27 27 28 29 30 31 34 33 30 30 29 28 31 35 38 40 39 37 37 36 37 33 31 33 35 33 35 36 36 27 14 10 19 27
25 24 23 26 28 29 27 26 27 29 30 29 30 30 32 34 34 33 33 32 33 35 38 38 39 40 40 40 39 39 37 33 31 32 33 32 34 28 28 24 23 23 21
23 26 26 28 30 32 32 31 31 31 33 34 34 34 35 35 37 38 38 39 38 39 39 41 40 41 41 39 39 39 39 36 34 29 32 32 34 33 26 24 15 22 24
24 26 29 31 31 31 32 33 33 34 35 37 37 38 39 41 41 42 42 43 43 42 42 43 43 43 43 42 41 38 37 36 36 37 28 32 31 28 18 18 18 25 26
24 28 30 33 34 34 34 33 34 36 37 39 40 41 43 45 46 46 46 46 45 44 43 42 42 41 41 40 39 39 41 37 37 37 33 31 30 31 25 30 28 27 24
Wind_Direction
285 294 27 322 286 274 285 294 302 317 328 343 349 352 346 346 348 349 353 354 351 349 346 341 337 336 333 327 316 315 322 326 329 334 341 352 354 356 354 353 346 343 343
276 278 285 294 293 276 280 287 292 296 303 314 330 336 335 332 336 340 343 343 341 341 339 337 332 323 316 317 317 313 318 331 336 340 348 348 341 357 351 354 356 356 348
285 263 238 241 248 257 256 260 268 273 281 296 319 323 320 320 322 330 331 334 339 340 339 334 332 335 325 328 326 314 312 327 336 337 340 340 345 2 0 11 10 3 353
289 272 267 273 268 268 270 266 266 273 282 292 301 307 309 313 316 320 326 334 335 339 342 339 335 342 341 332 340 339 331 334 337 339 340 338 4 1 5 4 1 357 345
272 260 267 271 269 270 276 276 275 275 278 286 291 292 295 301 304 312 322 329 330 333 336 334 335 347 346 348 340 337 338 337 334 329 334 340 5 331 343 355 353 353 355
334 292 276 272 271 269 271 278 281 282 284 286 290 293 298 302 306 310 317 321 323 325 329 326 335 346 352 340 343 335 329 326 323 319 319 336 335 316 330 339 350 0 359
292 291 292 293 289 288 286 282 283 285 288 290 295 300 299 298 299 303 310 314 317 321 325 324 331 342 345 345 338 335 333 323 322 320 322 317 307 310 320 328 345 356 357
281 289 284 295 308 317 313 312 308 304 306 305 301 300 300 300 302 303 306 311 313 319 321 327 329 338 342 342 338 326 328 323 315 314 309 308 302 311 311 311 323 332 342
275 269 267 269 271 292 306 319 322 325 328 326 322 318 314 313 313 312 312 313 315 317 321 325 328 332 338 342 341 333 325 324 301 302 300 302 298 293 288 291 301 309 324
263 268 278 297 279 303 329 340 338 325 320 314 310 307 314 313 312 316 317 320 322 322 322 325 326 329 337 336 335 338 319 304 304 300 295 296 291 285 286 291 305 300 312
238 285 340 15 342 341 325 332 310 308 316 332 333 331 326 317 314 315 317 315 315 318 318 319 327 330 336 337 332 330 327 309 308 302 297 289 282 286 289 289 298 296 304
211 301 292 330 351 340 311 319 321 329 334 338 334 337 349 348 337 327 323 316 313 317 315 324 333 340 338 338 336 341 331 320 316 307 301 297 288 283 283 283 288 293 298
315 265 237 326 317 328 316 313 308 312 324 326 330 328 331 337 335 339 342 335 330 330 330 339 343 341 335 330 330 338 325 317 325 314 311 305 294 290 284 283 288 286 286
241 313 301 327 306 316 318 312 311 312 312 310 313 316 323 319 322 321 328 331 331 329 324 334 331 332 334 331 334 323 321 309 316 310 299 301 294 289 282 273 271 272 278
198 312 295 310 314 316 315 313 310 306 300 296 297 303 306 309 313 312 317 321 318 315 318 327 331 327 326 325 318 314 314 311 312 306 301 295 289 287 278 277 274 272 275
296 288 287 301 308 307 304 299 296 296 297 301 304 307 307 306 303 304 302 305 307 311 317 320 322 319 317 318 309 312 312 316 312 304 313 310 297 278 277 276 272 271 277
314 307 295 315 315 309 301 290 292 298 299 294 290 294 297 294 297 300 303 305 312 313 312 316 314 311 311 307 309 311 321 323 329 305 316 317 295 286 264 276 252 257 265
303 298 303 316 316 314 314 309 311 312 308 295 297 303 293 296 302 302 310 314 318 317 317 316 313 317 315 316 316 319 325 317 322 318 319 315 310 303 298 278 277 280 272
300 307 313 317 316 315 317 316 312 308 303 303 305 298 296 294 286 298 298 312 313 311 306 308 310 313 313 312 315 318 318 319 317 315 318 309 311 301 278 278 277 273 281
305 306 309 307 308 309 310 311 309 305 306 308 307 304 301 303 316 309 306 307 310 300 299 301 303 307 307 306 307 308 309 311 311 313 315 311 311 308 288 290 271 276 266
290 289 288 288 290 293 301 302 301 301 302 301 300 300 299 302 301 297 302 299 301 288 292 294 296 300 300 300 300 299 300 302 304 306 308 306 308 313 297 288 298 274 258
278 277 278 282 285 287 291 291 294 296 298 299 300 298 300 300 303 298 297 296 295 288 288 291 292 295 294 295 296 296 297 298 302 301 304 307 311 319 322 276 280 278 272
282 277 277 277 281 287 288 288 292 296 297 297 295 297 297 296 297 294 292 288 288 287 290 292 292 293 295 297 297 295 296 297 294 295 300 300 299 309 298 306 271 277 255
284 280 279 279 281 285 288 291 293 294 295 296 296 296 295 292 292 292 291 291 290 290 289 290 291 292 295 296 296 298 298 297 295 289 291 294 296 302 294 287 285 251 290
289 281 276 276 275 277 281 285 287 288 290 292 293 292 291 292 292 291 292 293 294 295 295 295 295 295 295 297 299 298 295 295 294 294 294 289 290 295 284 270 290 287 268
281 282 281 280 280 279 278 280 282 287 288 289 290 290 289 290 292 292 294 295 294 294 295 294 294 295 297 297 297 297 296 294 292 291 289 288 285 286 282 262 275 277 262
Height
5930 5928 5928 5930 5930 5931 5931 5931 5931 5931 5931 5931 5931 5930 5930 5929 5927 5925 5924 5922 5920 5918 5917 5915 5913 5912 5910 5908 5906 5905 5903 5901 5899 5897 5894 5892 5890 5888 5886 5885 5883 5882 5881
5930 5928 5929 5930 5931 5931 5931 5932 5932 5932 5932 5931 5931 5930 5930 5929 5927 5926 5925 5923 5921 5919 5917 5914 5912 5910 5909 5907 5905 5903 5901 5899 5898 5896 5893 5891 5890 5888 5886 5885 5883 5882 5880
5930 5929 5929 5929 5930 5931 5931 5931 5932 5931 5931 5931 5931 5931 5930 5929 5928 5926 5924 5922 5920 5917 5915 5912 5910 5908 5906 5904 5902 5900 5898 5897 5896 5894 5892 5891 5890 5887 5886 5884 5883 5882 5880
5930 5930 5930 5931 5930 5931 5931 5931 5931 5931 5931 5932 5932 5931 5931 5930 5928 5926 5924 5922 5919 5916 5914 5911 5909 5907 5905 5904 5902 5900 5898 5897 5895 5893 5892 5891 5888 5887 5885 5883 5882 5880 5879
5929 5930 5930 5931 5931 5931 5931 5931 5931 5931 5931 5931 5932 5931 5930 5929 5928 5926 5924 5921 5919 5916 5913 5911 5909 5907 5906 5903 5902 5900 5897 5895 5893 5891 5890 5889 5887 5886 5884 5882 5881 5880 5878
5930 5930 5929 5929 5930 5930 5930 5931 5931 5931 5931 5931 5931 5930 5930 5929 5927 5925 5923 5921 5918 5915 5912 5910 5908 5907 5905 5902 5900 5899 5897 5894 5892 5891 5889 5888 5888 5887 5885 5882 5881 5879 5877
5928 5927 5927 5928 5928 5929 5929 5929 5929 5930 5930 5930 5929 5928 5928 5927 5925 5924 5921 5919 5916 5913 5910 5908 5907 5905 5903 5901 5899 5898 5896 5893 5892 5890 5889 5887 5886 5885 5883 5881 5879 5877 5876
5926 5927 5928 5928 5928 5927 5928 5928 5929 5929 5928 5928 5928 5926 5925 5924 5923 5921 5919 5917 5914 5911 5908 5907 5905 5903 5900 5899 5897 5895 5894 5892 5891 5889 5887 5886 5885 5883 5882 5880 5878 5876 5874
5925 5926 5927 5926 5926 5927 5926 5927 5927 5927 5926 5926 5925 5924 5923 5921 5920 5919 5917 5915 5912 5909 5907 5906 5903 5900 5898 5896 5894 5892 5892 5891 5886 5886 5884 5883 5882 5881 5879 5877 5876 5874 5873
5925 5925 5926 5925 5925 5925 5925 5924 5924 5924 5923 5923 5921 5920 5919 5917 5917 5916 5914 5912 5910 5907 5906 5904 5900 5898 5897 5894 5891 5890 5888 5886 5885 5883 5881 5880 5880 5879 5877 5875 5875 5874 5872
5924 5924 5925 5925 5924 5924 5924 5923 5923 5922 5921 5920 5919 5917 5916 5914 5913 5912 5911 5909 5907 5905 5903 5901 5898 5896 5895 5892 5889 5887 5886 5884 5882 5879 5879 5876 5877 5876 5874 5873 5872 5871 5869
5923 5924 5924 5924 5924 5923 5923 5922 5922 5921 5920 5919 5917 5916 5913 5912 5910 5909 5908 5907 5904 5902 5901 5899 5897 5894 5893 5889 5887 5885 5884 5882 5881 5880 5877 5876 5874 5871 5869 5869 5869 5869 5867
5922 5921 5923 5923 5922 5922 5922 5921 5921 5919 5918 5916 5916 5914 5912 5910 5908 5907 5906 5905 5902 5900 5898 5896 5894 5892 5890 5887 5884 5882 5881 5881 5879 5877 5876 5874 5870 5868 5866 5865 5865 5864 5862
5925 5922 5922 5921 5921 5921 5919 5919 5919 5917 5916 5914 5913 5912 5909 5907 5906 5904 5903 5902 5900 5898 5897 5894 5892 5890 5888 5884 5882 5880 5879 5877 5877 5874 5871 5872 5869 5866 5862 5859 5856 5856 5856
5923 5920 5920 5920 5917 5917 5916 5915 5915 5914 5913 5912 5910 5909 5907 5906 5904 5902 5901 5899 5897 5896 5895 5892 5890 5887 5885 5884 5882 5879 5877 5875 5874 5870 5869 5866 5865 5864 5860 5857 5854 5851 5851
5920 5918 5921 5919 5918 5916 5914 5913 5912 5911 5909 5906 5904 5902 5901 5902 5901 5900 5898 5897 5896 5894 5892 5890 5887 5885 5882 5881 5878 5876 5872 5869 5868 5865 5862 5859 5858 5856 5856 5853 5850 5848 5847
5913 5918 5919 5915 5913 5915 5915 5912 5911 5908 5906 5904 5903 5900 5897 5895 5894 5894 5893 5892 5892 5890 5888 5887 5884 5881 5878 5874 5873 5871 5868 5864 5861 5859 5857 5855 5851 5850 5848 5844 5829 5835 5836
5912 5914 5914 5910 5908 5909 5910 5908 5904 5903 5903 5902 5901 5899 5895 5892 5891 5891 5889 5887 5885 5883 5882 5880 5877 5875 5871 5867 5865 5863 5863 5859 5856 5852 5850 5844 5840 5841 5837 5830 5824 5829 5830
5905 5904 5903 5903 5902 5900 5901 5902 5900 5899 5897 5896 5896 5894 5890 5887 5880 5887 5884 5881 5881 5879 5877 5875 5872 5871 5868 5865 5862 5859 5857 5855 5851 5847 5844 5837 5833 5829 5828 5827 5828 5820 5826
5893 5893 5895 5896 5897 5897 5895 5894 5893 5891 5890 5889 5886 5883 5881 5883 5884 5884 5880 5876 5876 5874 5872 5870 5868 5865 5862 5860 5858 5856 5853 5850 5848 5842 5838 5831 5827 5824 5820 5821 5822 5822 5818
5895 5894 5895 5896 5896 5895 5894 5891 5889 5887 5887 5886 5883 5878 5875 5875 5879 5877 5874 5873 5870 5867 5866 5864 5861 5858 5856 5853 5851 5850 5848 5846 5843 5840 5835 5830 5823 5818 5809 5809 5808 5809 5809
5893 5892 5892 5891 5891 5892 5891 5888 5886 5884 5882 5879 5877 5874 5872 5868 5866 5866 5864 5865 5864 5861 5859 5856 5853 5851 5849 5846 5843 5841 5841 5841 5837 5833 5829 5824 5818 5812 5806 5804 5801 5805 5806
5887 5888 5888 5888 5886 5884 5884 5883 5881 5878 5876 5875 5873 5870 5867 5862 5860 5859 5857 5856 5856 5855 5851 5848 5845 5843 5841 5837 5835 5832 5831 5832 5830 5826 5822 5818 5813 5811 5806 5803 5802 5802 5803
5882 5881 5881 5882 5880 5878 5875 5874 5873 5871 5868 5866 5865 5864 5861 5858 5855 5853 5851 5849 5848 5846 5844 5840 5837 5834 5832 5829 5827 5824 5821 5820 5818 5819 5816 5811 5806 5802 5801 5797 5795 5798 5797
5875 5874 5874 5874 5873 5873 5871 5869 5867 5864 5862 5859 5857 5855 5852 5849 5847 5844 5842 5840 5838 5835 5833 5829 5826 5824 5821 5819 5816 5815 5813 5811 5809 5806 5808 5804 5802 5798 5794 5794 5791 5790 5790
5868 5867 5867 5866 5865 5865 5863 5861 5859 5857 5854 5852 5849 5846 5842 5839 5836 5834 5831 5829 5827 5825 5822 5820 5816 5813 5810 5809 5807 5804 5801 5801 5799 5797 5798 5796 5794 5792 5791 5787 5786 5785 5785